EDT,Max TemperatureF,Mean TemperatureF,Min TemperatureF,Max Dew PointF,MeanDew PointF,Min DewpointF,Max Humidity, Mean Humidity, Min Humidity, Max Sea Level PressureIn, Mean Sea Level PressureIn, Min Sea Level PressureIn, Max VisibilityMiles, Mean VisibilityMiles, Min VisibilityMiles, Max Wind SpeedMPH, Mean Wind SpeedMPH, Max Gust SpeedMPH,PrecipitationIn, CloudCover, Events, WindDirDegrees
2013-3-1,46,40,33,28,27,25,81,63,46,29.92,29.88,29.84,10,10,10,10,5,,0.00,5,,304
2013-3-2,44,37,30,30,24,19,93,61,43,29.92,29.89,29.83,10,10,10,10,3,16,0.00,6,,335
2013-3-3,44,36,28,21,19,18,64,54,36,29.98,29.92,29.85,10,10,10,12,5,21,0.00,3,,314
2013-3-4,50,36,23,25,15,9,80,49,19,30.12,30.05,29.98,10,10,10,12,4,20,0.00,0,,309
2013-3-5,48,40,32,43,35,23,100,85,37,30.08,29.93,29.59,10,7,2,12,2,18,0.26,7,Rain-Snow,130
2013-3-6,44,38,33,39,32,27,100,78,57,30.04,29.75,29.54,10,9,2,22,10,36,0.03,7,Rain-Snow,323
2013-3-7,46,40,33,30,28,25,81,64,46,30.25,30.15,30.04,10,10,10,15,6,24,0.00,2,,323
2013-3-8,53,42,32,28,24,21,80,54,30,30.31,30.23,30.17,10,10,10,16,5,25,0.00,0,,328
2013-3-9,60,43,26,32,27,21,100,60,23,30.36,30.30,30.26,10,10,10,9,2,,0.00,0,,17
2013-3-10,64,46,28,34,27,21,100,53,20,30.34,30.27,30.22,10,10,10,10,2,,0.00,0,,150
2013-3-11,66,50,35,52,40,21,87,60,32,30.25,30.10,29.95,10,10,10,15,5,24,0.00,3,,167
2013-3-12,66,56,44,61,49,32,100,76,41,29.98,29.85,29.77,10,10,5,17,9,25,0.58,5,Rain,249
2013-3-13,53,42,30,34,26,19,100,58,30,30.15,30.04,29.97,10,10,10,17,5,28,0.00,2,,309
2013-3-14,51,40,28,19,17,12,69,42,22,30.25,30.17,30.12,10,10,10,16,6,23,0.00,0,,312
2013-3-15,60,43,26,34,26,14,86,49,31,30.18,30.05,29.90,10,10,10,16,5,26,0.00,0,,237
2013-3-16,75,58,41,54,42,34,100,58,31,29.90,29.79,29.64,10,10,10,20,5,25,0.00,2,Rain-Thunderstorm,228
2013-3-17,55,46,37,52,42,36,100,88,66,30.20,30.05,29.85,10,9,1,17,7,22,0.00,6,,58
2013-3-18,39,37,35,39,37,36,100,100,100,30.22,30.10,29.88,10,4,2,13,7,20,0.15,8,Rain-Thunderstorm,59
2013-3-19,64,50,35,43,29,9,100,60,15,30.05,29.90,29.83,10,8,0,13,4,29,0.00,3,Fog,292
2013-3-20,53,44,35,28,13,9,75,31,18,30.11,29.98,29.81,10,10,7,13,3,20,0.00,1,,261
2013-3-21,44,37,30,30,17,9,70,45,28,29.99,29.83,29.75,10,10,10,14,6,24,0.00,4,,318
2013-3-22,50,34,19,25,14,10,86,47,20,30.08,30.01,29.96,10,10,10,13,4,20,0.00,0,,278
2013-3-23,53,42,30,32,26,16,93,61,28,30.07,30.00,29.93,10,10,10,6,1,,0.00,5,,323
2013-3-24,39,36,32,37,34,28,100,95,75,29.94,29.77,29.58,10,7,1,20,4,26,0.30,6,Rain,45
2013-3-25,44,38,32,36,29,21,100,74,39,29.81,29.63,29.57,10,9,2,15,5,25,0.00,8,Rain-Snow,282
2013-3-26,46,39,32,28,26,25,80,59,46,30.12,29.94,29.81,10,10,10,13,6,21,0.00,4,,302
2013-3-27,50,41,32,27,23,18,80,54,32,30.23,30.17,30.12,10,10,10,17,7,25,0.00,1,,302
2013-3-28,53,42,32,28,23,21,80,50,28,30.30,30.22,30.17,10,10,10,15,5,24,0.00,1,,319
2013-3-29,59,42,26,32,26,21,100,58,23,30.34,30.26,30.18,10,10,10,13,1,16,0.00,2,,277
2013-3-30,64,48,32,41,31,27,100,58,24,30.26,30.18,30.09,10,10,10,10,1,,0.00,3,,187
2013-3-31,64,55,46,55,49,41,100,83,59,30.10,29.93,29.82,10,9,2,16,6,22,0.50,6,Rain,204